International Falls, MN

10:24 AM CST on February 06, 2016 (GMT -0600)
Falls International

Weather History for KINL - July, 2013

Change the Weather History Date:

Friday, July 19, 2013

  Actual Average Record
Temperature  
Mean Temperature 62 °F 66 °F  
Max Temperature 75 °F 78 °F 100 °F (1923)
Min Temperature 49 °F 53 °F 37 °F (2009)
Degree Days  
Heating Degree Days 3 2  
Month to date heating degree days 5 45  
Since 1 June heating degree days 174 209  
Since 1 July heating degree days 5 45  
Cooling Degree Days 0 3  
Month to date cooling degree days 90 48  
Year to date cooling degree days 127 95  
Since 1 June cooling degree days 124 86  
Growing Degree Days 15 (Base 50)    
Moisture  
Dew Point 58 °F    
Average Humidity 72    
Maximum Humidity 100    
Minimum Humidity 44    
Precipitation  
Precipitation T in 0.11 in 2.67 in (1972)
Month to date precipitation 4.22 2.48  
Year to date precipitation 18.20 12.93  
Snow  
Snow 0.00 in 0.00 in 0.00 in (2002)
Month to date snowfall 0.0 0.0  
Since 1 June snowfall 0.0 0.0  
Since 1 July snowfall 0.0 0.0  
Snow Depth 0.00 in    
Sea Level Pressure  
Sea Level Pressure 29.73 in    
Wind  
Wind Speed 10 mph (West)    
Max Wind Speed 22 mph    
Max Gust Speed 29 mph    
Visibility 10 miles    
Events Rain    
T = Trace of Precipitation, MM = Missing Value Source: NWS Daily Summary

Daily Weather History Graph

Daily Weather History Graph

Search for Another Location

Airport or City:

Trip Planner

Search our weather history database for the weather conditions in past years. The results will help you decide how hot, cold, wet, or windy it might be!

Date:

Astronomy

Jul. 19, 2013 Rise Set
Actual Time 5:32 AM CDT 9:07 PM CDT
Civil Twilight 4:52 AM CDT 9:46 PM CDT
Nautical Twilight 3:59 AM CDT 10:38 PM CDT
Astronomical Twilight 2:46 AM CDT 11:50 PM CDT
Moon 6:09 PM CDT (7/19) 2:15 AM CDT (7/19)
Length of Visible Light 16h 53m
Length of Day
15h 34m
Waxing Gibbous, 87% of the Moon is Illuminated
Jul 19
Waxing Gibbous
Jul 22
Full
Jul 29
Last Quarter
Aug 6
New
Aug 14
First Quarter

Hourly Weather History & Observations

Time (CDT) Temp. Dew Point Humidity Pressure Visibility Wind Dir Wind Speed Gust Speed Precip Events Conditions
12:04 AM 66.2 °F 66.2 °F 100% 29.64 in 2.5 mi SSW 3.5 mph - N/A   Partly Cloudy
12:12 AM 66.2 °F 64.4 °F 94% 29.63 in 1.8 mi SSW 3.5 mph - N/A   Partly Cloudy
12:15 AM 66.2 °F 64.4 °F 94% 29.63 in 4.0 mi SSW 3.5 mph - N/A   Partly Cloudy
12:55 AM 66.9 °F 66.0 °F 97% 29.61 in 10.0 mi Calm Calm - N/A   Clear
1:55 AM 66.9 °F 66.0 °F 97% 29.62 in 10.0 mi SW 5.8 mph - N/A   Scattered Clouds
2:53 AM 68.0 °F 66.2 °F 94% 29.63 in 10.0 mi West 6.9 mph - N/A   Mostly Cloudy
2:55 AM 68.0 °F 66.0 °F 93% 29.62 in 10.0 mi West 8.1 mph - N/A   Mostly Cloudy
3:33 AM 66.2 °F 64.4 °F 94% 29.63 in 10.0 mi WNW 9.2 mph - N/A   Scattered Clouds
3:55 AM 64.9 °F 62.1 °F 90% 29.63 in 10.0 mi WNW 9.2 mph - N/A   Clear
4:55 AM 63.0 °F 60.1 °F 90% 29.65 in 10.0 mi WNW 6.9 mph - N/A   Partly Cloudy
5:55 AM 62.1 °F 60.1 °F 93% 29.69 in 10.0 mi WNW 6.9 mph - N/A   Clear
6:55 AM 63.0 °F 61.0 °F 93% 29.71 in 10.0 mi WNW 10.4 mph - N/A   Partly Cloudy
7:11 AM 62.6 °F 60.8 °F 94% 29.73 in 10.0 mi WNW 10.4 mph - N/A   Mostly Cloudy
7:19 AM 64.4 °F 60.8 °F 88% 29.74 in 10.0 mi WNW 9.2 mph - N/A   Mostly Cloudy
7:42 AM 64.4 °F 60.8 °F 88% 29.74 in 10.0 mi WNW 10.4 mph - N/A   Mostly Cloudy
7:51 AM 64.4 °F 62.6 °F 94% 29.74 in 10.0 mi West 8.1 mph - N/A   Scattered Clouds
7:55 AM 64.9 °F 61.0 °F 87% 29.73 in 10.0 mi West 10.4 mph - N/A   Scattered Clouds
8:09 AM 64.4 °F 60.8 °F 88% 29.75 in 10.0 mi WNW 10.4 mph 17.3 mph N/A   Mostly Cloudy
8:17 AM 64.4 °F 60.8 °F 88% 29.75 in 10.0 mi WNW 9.2 mph - N/A   Mostly Cloudy
8:30 AM 66.2 °F 60.8 °F 83% 29.75 in 10.0 mi WNW 10.4 mph - N/A   Scattered Clouds
8:55 AM 68.0 °F 60.1 °F 76% 29.75 in 10.0 mi West 12.7 mph - N/A   Partly Cloudy
9:55 AM 69.1 °F 57.9 °F 68% 29.77 in 10.0 mi West 12.7 mph - N/A   Partly Cloudy
10:55 AM 71.1 °F 55.0 °F 57% 29.78 in 10.0 mi WNW 11.5 mph - N/A   Clear
11:55 AM 73.0 °F 57.0 °F 57% 29.78 in 10.0 mi WSW 10.4 mph - N/A   Partly Cloudy
12:55 PM 73.0 °F 55.0 °F 53% 29.78 in 10.0 mi West 11.5 mph - N/A   Scattered Clouds
1:55 PM 73.9 °F 53.1 °F 48% 29.77 in 10.0 mi WSW 12.7 mph 23.0 mph N/A   Partly Cloudy
2:55 PM 71.1 °F 52.0 °F 51% 29.77 in 10.0 mi West 9.2 mph 20.7 mph N/A   Overcast
3:55 PM 66.0 °F 55.9 °F 70% 29.78 in 10.0 mi WSW 10.4 mph 18.4 mph 0.00 in Rain Light Rain
4:55 PM 73.0 °F 57.9 °F 59% 29.76 in 10.0 mi West 9.2 mph 17.3 mph 0.00 in   Clear
5:55 PM 73.9 °F 51.1 °F 45% 29.76 in 10.0 mi West 20.7 mph 28.8 mph N/A   Partly Cloudy
6:55 PM 73.0 °F 50.0 °F 44% 29.76 in 10.0 mi West 16.1 mph 21.9 mph N/A   Clear
7:55 PM 71.1 °F 51.1 °F 49% 29.78 in 10.0 mi NW 11.5 mph - N/A   Scattered Clouds
8:55 PM 66.0 °F 48.0 °F 52% 29.82 in 10.0 mi NNW 13.8 mph - N/A   Clear
9:55 PM 63.0 °F 46.9 °F 56% 29.85 in 10.0 mi North 10.4 mph - N/A   Clear
10:55 PM 55.9 °F 46.0 °F 69% 29.87 in 10.0 mi NNW 3.5 mph - N/A   Clear
11:55 PM 54.0 °F 45.0 °F 72% 29.89 in 10.0 mi NW 4.6 mph - N/A   Clear